Terminal Aerodrome Forecast
Issued by NWS Sterling, VA

Current Version | Previous Version | Graphics & Text | Print | Product List | Glossary On
Versions: 1 2 3 4 5 6 7 8 9 10 11 12 13 14 15 16 17 18 19 20 21 22
000
FTUS41 KLWX 200800 AAB
TAFIAD
TAF AMD
KIAD 200835Z 2009/2112 14006KT P6SM BKN080
     FM201500 18006KT P6SM SCT060
     FM210700 00000KT P6SM SCT250=

USA.gov is the U.S. government's official web portal to all federal, state and local government web resources and services.